Regional Weather Roundup
Issued by NWS

Home | Current Version | Previous Version | Text Only | Print | Product List | Glossary On
Versions: 1 2 3 4 5 6 7 8 9 10 11 12 13 14 15 16 17 18 19 20 21 22 23 24 25 26 27 28
000
ASUS45 KCYS 110610
RWRWY

WYOMING REGIONAL WEATHER ROUNDUP
NATIONAL WEATHER SERVICE CHEYENNE WY
1100 PM MST SUN DEC 10 2017

NOTE:  "FAIR" INDICATES FEW OR NO CLOUDS BELOW 12,000 FEET
WITH NO SIGNIFICANT WEATHER AND/OR OBSTRUCTIONS TO VISIBILITY.

WYZ001-110700-
YELLOWSTONE NATIONAL PARK

CITY           SKY/WX    TMP DP  RH WIND       PRES   REMARKS
LK YELLOWSTONE   N/A      7   4  87 NW3       30.60R
6HR MIN TEMP:   6; 6HR MAX TEMP:  19;

W YELLOWSTONE  NOT AVBL

$$
WYZ002>013-054>058-071-098>099-110700-
NORTHERN WYOMING

CITY           SKY/WX    TMP DP  RH WIND       PRES   REMARKS
JACKSON        FAIR      12   8  84 N7        30.61R WCI   1
CODY           FAIR      39   6  25 CALM      30.38S
GREYBULL       FAIR      17  11  77 SE3       30.40R
6HR MIN TEMP:  16; 6HR MAX TEMP:  36;

WORLAND        FAIR      21  17  84 SW7       30.40R WCI  12
6HR MIN TEMP:  18; 6HR MAX TEMP:  33;

SHERIDAN       FAIR      45   9  23 N7        30.31F
6HR MIN TEMP:  31; 6HR MAX TEMP:  51;

BUFFALO        FAIR      42   8  24 N15       30.30S
6HR MIN TEMP:  36; 6HR MAX TEMP:  51;

GILLETTE       FAIR      37  15  40 W12       30.28R WCI  29
6HR MIN TEMP:  34; 6HR MAX TEMP:  44;

HULETT         FAIR      39  16  38 SW10      30.25R WCI  32
NEWCASTLE      FAIR      41  10  28 NW12      30.25S

$$
WYZ014>020-022>026-101>103-110700-
CENTRAL WYOMING

CITY           SKY/WX    TMP DP  RH WIND       PRES   REMARKS
BIG PINEY      FAIR      19   0  43 NE10      30.51R WCI   7
6HR MIN TEMP:  15; 6HR MAX TEMP:  41;

PINEDALE       FAIR      27   3  36 NW9       30.51R WCI  17
DUBOIS         FAIR      36  -8  15 W10       30.48R WCI  28
LANDER         FAIR      22  15  75 W3        30.42R
6HR MIN TEMP:  18; 6HR MAX TEMP:  32;

RIVERTON       FAIR      21  14  74 W5        30.43R WCI  15
6HR MIN TEMP:  18; 6HR MAX TEMP:  29;

CASPER         FAIR      35  15  44 W10       30.38R WCI  27
6HR MIN TEMP:  33; 6HR MAX TEMP:  37;

DOUGLAS        FAIR      29  18  63 NW12      30.35R WCI  19
6HR MIN TEMP:  27; 6HR MAX TEMP:  39;


$$
WYZ021-027>030-104>119-110700-
SOUTHERN WYOMING

CITY           SKY/WX    TMP DP  RH WIND       PRES   REMARKS
EVANSTON       FAIR      31  11  43 SW3       30.54S
6HR MIN TEMP:  28; 6HR MAX TEMP:  39;

FORT BRIDGER   FAIR      34   6  31 W16       30.54S WCI  23
ROCK SPRINGS   FAIR      32   5  32 W15       30.49S WCI  22
6HR MIN TEMP:  32; 6HR MAX TEMP:  41;

DIXON          FAIR      14   7  76 CALM      30.55R
RAWLINS        FAIR      33   8  35 W12       30.48R WCI  24
6HR MIN TEMP:  28; 6HR MAX TEMP:  37;

SARATOGA       FAIR      19  10  68 CALM      30.49R
LARAMIE        FAIR      17   6  62 E10       30.41R WCI   5
6HR MIN TEMP:  15; 6HR MAX TEMP:  36;

CHEYENNE       FAIR      41   0  18 W20       30.33R
6HR MIN TEMP:  36; 6HR MAX TEMP:  44;

TORRINGTON     FAIR      34  11  38 W5        30.29R WCI  30
6HR MIN TEMP:  34; 6HR MAX TEMP:  48;

PINE BLUFFS    FAIR      37   1  22 MISG      30.30S

$$




USA.gov is the U.S. government's official web portal to all federal, state and local government web resources and services.